Погода в Корияме

Япония     37°25′55″N   140°25′02″E
темп.,
°C
ветер,
м/с
пор.,
м/с
влажн.,
%
обл.,
%
осадки,
мм/ч
давл.,
гПа
погр.,
м
15 апреля, чт
чт1500:00+2ссв37671 0.0 1017313
03:000св13713 0.0 101996
06:00+1юв11723 0.0 102194
09:00+8з02443 0.0 10221085
12:00+13всв12314 0.0 10211580
15:00+14ю02290 0.0 10201771
18:00+8вюв3657100 0.0 1023205
21:00+5ююв2572100 0.0 1026157
16 апреля, пт
пт1600:00+4ююв2476100 0.0 1027127
03:00+5ююв2378100 0.0 1027104
06:00+5ю157893 0.0 1028190
09:00+12ююз595329 0.0 10271575
12:00+12ю51056100 0.0 10261703
15:00+14ю7952100 0.1 10241616
18:00+10ю410709 0.0 1026882
21:00+9ю41176100 0.0 1026821
17 апреля, сб
сб1700:00+10ю41074100 0.0 10251033
03:00+9ю41179100 0.0 1024834
06:00+9ююз31185100 0.0 1024710
09:00+14ююз696487 0.0 10211226
12:00+14ююз51069100 0.1 10191260
15:00+12ю31090100 2.3 10161014
18:00+11ю2993100 4.4 1014602
21:00+12ю41189100 5.5 1010952
18 апреля, вс
вс1800:00+12ю2994100 1.5 1004588
03:00+12зюз3699100 12.2 1000368
06:00+8зюз4986100 0.8 1003674
09:00+10з5126739 0.8 10031250
12:00+12з713494 0.0 10011779
15:00+12з81655100 0.0 10001940
18:00+6зюз618715 0.1 10021477
21:00+5зюз71790100 3.2 10031402
19 апреля, пн
пн1900:00+6з82087100 1.1 10031555
03:00+7зюз71980100 1.3 10041804
06:00+7зюз71884100 0.1 10061721
09:00+8зюз7137589 0.2 10081165
12:00+12з7136243 0.1 10091639
15:00+13з714523 0.1 10091729
18:00+9зюз612641 0.0 10121002
21:00+8зюз411690 0.0 1014656